Skip Page Navigation
NASA JPL Caltech
NASA Logo - Jet Propulsion Laboratory + View the NASA Portal
+ Center for Near-Earth Object Studies
JPL Home Earth Solar System Stars & Galaxies Technology
JPL Solar System Dynamics
BODIES ORBITS EPHEMERIDES TOOLS PHYSICAL DATA DISCOVERY FAQ SITE MAP
IMPORTANT: The SSD Announcement email list is now available. Major changes are coming in the near future, including possible hostname and/or URL changes. To be notified of such changes, subscribe to this email list.

Please visit this page for more details.


JPL Small-Body Database Browser
Search: [ help ]  
56419 (2000 FM59)
Classification: Main-belt Asteroid          SPK-ID: 2056419
Ephemeris | Orbit Diagram | Orbital Elements | Mission Design | Physical Parameters | Discovery Circumstances ]

[ show orbit diagram ]
Orbital Elements at Epoch 2458600.5 (2019-Apr-27.0) TDB
Reference: JPL 12 (heliocentric ecliptic J2000)
 Element Value Uncertainty (1-sigma)   Units 
e .06598077972768196 4.1549e-08  
a 2.221391822102576 8.6668e-09 au
q 2.074822657599552 9.3427e-08 au
i 6.636178328572792 4.3567e-06 deg
node 138.662690861674 4.062e-05 deg
peri 272.1089567198593 5.3268e-05 deg
M 46.39259826333277 3.3519e-05 deg
tp 2458444.658767065533
(2018-Nov-22.15876707)
0.00011266 TDB
period 1209.305922853433
3.31
7.0772e-06
1.938e-08
d
yr
n .2976914221593802 1.7422e-09 deg/d
Q 2.3679609866056 9.2386e-09 au
  Orbit Determination Parameters
   # obs. used (total)      638  
   data-arc span      7415 days (20.30 yr)  
   first obs. used      1998-09-22  
   last obs. used      2019-01-10  
   planetary ephem.      DE431  
   SB-pert. ephem.      SB431-N16  
   condition code      0  
   norm. resid. RMS      .59038  
   source      ORB  
   producer      Otto Matic  
   solution date      2019-Jul-13 03:24:59  

Additional Information
 Earth MOID = 1.09706 au 
 Jupiter MOID = 2.82662 au 
 T_jup = 3.638 
[ show covariance matrix ]

Ephemeris | Orbit Diagram | Orbital Elements | Mission Design | Physical Parameters | Discovery Circumstances ]

Physical Parameter Table
Parameter Symbol Value Units Sigma Reference Notes
absolute magnitude H 16.1   n/a MPO468456  

56419 (2000 FM59)          Discovered 2000-Mar-29 by LINEAR at Socorro
Reference: 20030318/Numbers.arcLast Updated: 2004-04-19

Alternate Designations
 2000 FM59 = 2001 PS21 
Ephemeris | Orbit Diagram | Orbital Elements | Mission Design | Physical Parameters | Discovery Circumstances ]
ABOUT SSD CREDITS/AWARDS PRIVACY/COPYRIGHT GLOSSARY LINKS
FirstGov 2020-Jan-19 05:45 UT
(server date/time)  
NASA Home Page
Site Manager:   Ryan S. Park
Webmaster  Alan B. Chamberlin